Total_Precipitation_Accumulation
2.99 2.99 2.88 2.80 2.59 2.66 2.98 3.21 3.04 3.03 2.93 2.73 2.46 2.26 2.14 2.07 2.00 2.18 2.32 2.42 2.39 2.41 2.66 2.82 2.68 2.43 2.35 2.19 2.01 1.79 1.69 1.67 1.52 1.29 1.16 1.08 1.00 1.00 1.04 1.09 1.06 0.94 0.91
3.35 3.51 3.38 3.23 2.83 2.71 2.77 3.02 3.07 3.29 3.21 3.01 2.43 2.31 2.28 2.26 2.28 2.24 2.40 2.88 2.91 2.52 2.57 2.89 3.07 3.02 2.86 2.71 2.48 2.22 2.04 1.93 1.66 1.38 1.28 1.21 1.09 1.04 1.16 1.27 1.27 1.06 0.93
3.55 3.53 3.37 3.00 2.68 2.65 2.86 2.86 2.84 3.11 2.94 2.81 2.70 2.70 2.65 2.55 2.43 2.39 2.48 2.97 2.94 2.56 2.42 2.53 2.87 3.12 3.21 3.32 3.22 3.09 2.79 2.41 2.03 1.65 1.41 1.23 1.12 1.03 1.08 1.25 1.36 1.25 1.05
3.11 3.16 2.90 2.55 2.57 2.71 2.86 3.05 2.94 3.01 3.03 3.11 3.17 3.11 2.92 2.77 2.36 2.19 2.11 2.26 2.52 2.23 2.39 2.64 2.75 2.83 3.23 3.69 3.86 4.06 3.70 3.00 2.40 1.93 1.63 1.38 1.21 1.07 0.99 1.07 1.23 1.27 1.13
2.43 2.63 2.58 2.49 2.45 2.65 2.71 2.52 2.93 3.17 3.16 3.18 2.93 2.98 2.60 2.47 2.25 1.96 1.94 1.92 2.08 2.22 2.27 2.34 2.52 2.56 3.00 3.72 4.30 4.78 4.64 3.92 3.12 2.60 2.28 1.91 1.64 1.33 1.15 1.11 1.14 1.17 1.10
2.27 2.53 2.50 2.44 2.42 2.59 2.70 2.81 3.10 3.23 2.92 2.86 2.57 2.49 2.21 1.85 1.82 1.80 1.69 1.78 1.92 1.88 2.04 2.21 2.51 2.32 2.79 3.34 4.01 4.73 5.26 5.01 4.13 3.46 3.17 2.86 2.55 2.07 1.58 1.31 1.19 1.19 1.12
2.43 2.65 2.52 2.57 2.38 2.43 2.43 2.51 2.78 2.91 2.54 2.63 3.10 2.71 2.09 1.71 1.71 1.63 1.65 1.74 1.76 1.84 2.09 2.42 2.64 2.71 2.71 2.66 2.94 3.71 4.79 5.36 5.12 4.43 4.00 3.68 3.34 2.79 2.16 1.76 1.50 1.36 1.24
2.37 2.39 2.50 2.36 2.27 2.40 2.37 2.41 2.66 2.64 2.32 2.52 3.04 3.20 2.67 2.28 1.94 1.56 1.58 1.65 1.75 2.00 2.12 2.16 2.60 2.91 2.86 3.14 2.73 2.78 3.63 4.61 5.23 5.10 4.69 4.10 3.62 3.13 2.63 2.30 1.96 1.70 1.48
2.11 2.13 2.08 2.15 2.25 2.01 2.17 2.37 2.51 2.57 2.46 2.40 2.67 3.15 2.99 2.64 2.26 1.86 1.70 1.81 2.01 2.19 2.27 2.41 2.48 2.69 2.89 3.34 3.22 2.97 2.98 3.34 4.31 5.21 5.33 4.66 3.79 3.18 2.95 2.81 2.67 2.25 1.87
1.88 1.89 1.88 2.03 2.11 2.03 2.29 1.99 2.11 2.38 2.60 2.42 2.44 2.48 2.58 2.83 2.81 2.38 2.02 1.88 1.98 2.14 2.23 2.24 2.30 2.57 2.80 3.13 3.43 3.12 2.81 2.67 3.07 4.08 4.91 4.94 4.29 3.44 2.99 3.05 3.46 3.24 2.61
1.82 1.66 1.75 1.92 2.04 2.09 2.18 2.09 2.18 2.14 2.21 2.28 2.37 2.38 2.53 2.78 2.62 2.53 2.36 2.14 2.02 1.87 1.93 2.08 2.29 2.51 2.62 2.87 3.24 2.97 2.85 2.54 2.45 2.80 3.52 4.11 4.29 4.00 3.58 3.53 4.03 4.36 4.11
1.87 1.69 1.70 1.92 2.01 2.07 2.11 2.13 2.10 2.01 2.10 2.21 2.26 2.30 2.51 2.56 2.51 2.61 2.45 2.27 2.14 1.88 1.84 1.91 2.10 2.24 2.33 2.46 2.30 2.29 2.30 2.36 2.30 2.19 2.33 2.72 3.25 3.67 3.76 4.02 4.51 5.00 5.29
1.74 1.73 1.68 1.96 2.08 2.08 2.05 2.15 2.13 2.09 2.20 2.28 2.29 2.31 2.38 2.36 2.40 2.62 2.66 2.40 2.21 1.98 2.03 1.99 1.97 2.11 2.08 2.32 2.25 2.06 1.95 2.06 1.97 1.83 1.81 1.94 2.26 2.74 3.16 3.52 3.91 4.44 4.95
1.61 1.84 1.95 1.98 1.98 2.02 2.03 2.31 2.16 2.16 2.23 2.26 2.14 2.48 2.46 2.32 2.58 2.82 2.99 3.05 2.70 2.42 2.38 2.17 2.00 1.98 1.97 2.05 2.12 2.12 1.97 1.85 1.65 1.58 1.62 1.70 1.80 2.05 2.36 2.70 2.99 3.26 3.53
1.64 1.85 2.03 2.13 2.06 2.04 2.16 2.39 2.35 2.37 2.47 2.35 2.33 2.59 2.52 2.41 2.51 2.65 2.95 3.25 3.27 2.96 2.79 2.55 2.31 2.15 2.03 2.05 2.19 2.01 1.96 2.00 1.72 1.55 1.57 1.60 1.69 1.79 1.83 1.86 1.99 2.10 2.25
1.84 1.93 1.94 1.97 1.96 1.94 2.08 2.42 2.43 2.44 2.63 2.57 2.51 2.54 2.53 2.42 2.53 2.57 2.71 3.07 3.36 3.38 3.04 2.41 2.34 2.23 2.11 1.92 2.05 1.85 1.86 2.02 1.78 1.58 1.48 1.39 1.39 1.43 1.47 1.56 1.69 1.77 1.87
1.94 1.95 1.94 1.93 1.87 1.79 1.91 2.12 2.21 2.41 2.55 2.58 2.52 2.55 2.53 2.68 2.73 2.61 2.72 2.86 3.11 3.29 2.93 2.39 2.48 2.62 2.56 2.32 2.10 1.91 1.79 1.76 1.74 1.71 1.43 1.34 1.34 1.29 1.34 1.44 1.52 1.59 1.69
1.97 2.02 2.01 1.96 1.81 1.80 1.91 2.01 2.13 2.31 2.43 2.50 2.60 2.70 2.48 2.61 2.73 2.67 2.70 2.71 2.86 3.14 3.00 2.82 2.76 2.83 2.76 2.51 2.25 1.97 1.65 1.49 1.56 1.78 1.50 1.31 1.25 1.27 1.31 1.33 1.32 1.35 1.37
1.97 2.08 2.10 2.03 1.97 1.99 2.06 2.11 2.18 2.31 2.38 2.43 2.53 2.54 2.49 2.64 2.51 2.58 2.70 2.66 2.67 2.72 2.85 2.78 2.63 2.69 2.62 2.43 2.25 1.95 1.69 1.66 1.49 1.52 1.45 1.32 1.25 1.24 1.26 1.21 1.17 1.18 1.20
1.91 1.92 1.89 1.98 2.04 2.09 2.12 2.13 2.13 2.14 2.19 2.24 2.20 2.12 2.09 2.14 2.18 2.37 2.37 2.39 2.49 2.56 2.64 2.57 2.51 2.57 2.57 2.59 2.43 2.13 1.97 1.81 1.61 1.37 1.37 1.34 1.33 1.30 1.25 1.18 1.09 1.09 1.15
1.72 1.88 1.90 2.00 2.08 2.05 1.94 2.01 2.03 1.96 2.10 2.02 1.87 1.83 1.85 1.92 1.93 2.02 1.92 2.04 2.25 2.33 2.37 2.44 2.49 2.65 2.64 2.75 2.60 2.32 2.20 2.07 1.79 1.52 1.46 1.35 1.31 1.25 1.25 1.27 1.23 1.15 1.11
1.80 1.88 1.91 2.01 2.08 1.94 2.00 2.04 2.07 2.04 2.06 1.99 1.93 1.85 1.70 1.71 1.69 1.70 1.69 1.74 1.91 2.05 2.22 2.39 2.43 2.52 2.60 2.57 2.53 2.40 2.29 2.13 1.86 1.67 1.76 1.72 1.50 1.46 1.57 1.52 1.42 1.19 1.06
1.87 1.93 2.05 2.11 2.06 2.17 2.13 1.97 1.99 1.94 1.95 1.98 2.00 1.97 1.67 1.48 1.61 1.55 1.66 1.64 1.61 1.67 1.78 1.94 2.04 2.17 2.40 2.50 2.59 2.48 2.48 2.35 2.05 1.79 1.72 1.60 1.50 1.53 1.69 1.81 1.56 1.15 1.06
2.06 2.13 2.15 2.08 2.04 2.12 2.10 1.78 1.69 1.61 1.71 1.80 1.85 1.90 1.90 1.79 1.76 1.77 1.80 1.75 1.65 1.63 1.73 1.72 1.75 1.97 2.34 2.64 2.68 2.61 2.65 2.51 2.20 1.86 1.74 1.63 1.48 1.45 1.32 1.32 1.39 1.13 0.96
2.28 2.35 2.37 2.32 2.19 2.20 2.04 1.69 1.54 1.46 1.60 1.68 1.73 1.72 1.75 1.67 1.72 1.61 1.57 1.58 1.57 1.53 1.55 1.55 1.56 1.69 1.97 2.35 2.55 2.57 2.65 2.55 2.30 1.99 1.77 1.71 1.50 1.41 1.29 1.17 1.19 1.25 1.07
2.44 2.49 2.41 2.28 2.16 2.17 2.12 1.78 1.58 1.48 1.61 1.70 1.78 1.75 1.72 1.64 1.61 1.44 1.36 1.40 1.37 1.39 1.49 1.48 1.44 1.44 1.56 1.86 2.18 2.18 2.26 2.39 2.15 1.90 1.55 1.48 1.41 1.36 1.35 1.17 1.05 1.07 1.08